{"data":{"norad_id":64956,"epoch":"2026-09-21T22:52:26.868000Z","epoch_age_seconds":42694,"freshness":"FRESH","line1":"1 64956U 25159A   26264.95308875 -.00000067  00000+0 -19007-3 0  9991","line2":"2 64956  86.4901 249.7222 0002316 180.9847 179.1283 13.24405277 55935","mean_motion":13.24405277,"eccentricity":0.0002316,"inclination_deg":86.4901,"raan_deg":249.7222,"arg_perigee_deg":180.9847,"mean_anomaly_deg":179.1283,"bstar":-0.00019007,"rev_number":5593,"period_min":108.72804760049,"perigee_km":1166.1924543005,"apogee_km":1169.6877972252,"semimajor_km":7546.0771257628,"source":"CELESTRAK","updated_at":"2026-09-22T09:00:30.060384Z"}}